Regional Weather Roundup
Issued by NWS Sterling, VA

Home | Current Version | Previous Version | Text Only | Print | Product List | Glossary On
Versions: 1 2 3 4 5 6 7 8 9 10 11 12 13 14 15 16 17 18 19 20 21 22 23 24 25 26 27 28
000
ASUS41 KLWX 241910
RWRLWX

REGIONAL WEATHER ROUNDUP
NATIONAL WEATHER SERVICE BALTIMORE MD/WASHINGTON DC
300 PM EDT FRI OCT 24 2014

Note: "FAIR" indicates few or no clouds below 12,000 feet
with no significant weather and/or obstructions to visibility.
 TC=TEMPERATURE CELSIUS

 * =Non NWS site. Station does not report precipitation (e.g. rain,
    snow, etc.), thunder, or fog.

DCZ001-MDZ009-015-VAZ040>042-051-053>054-242000-
WASHINGTON METRO

CITY           SKY/WX    TMP DP  RH WIND       PRES   REMARKS
WASHINGTON NAT CLOUDY    70  39  32 NW14G24   29.91F
DULLES         PTSUNNY   66  38  35 NW12      29.92F
ANDREWS AFB    SUNNY     66  40  38 NW15G21   29.89F
FT BELVOIR     MOSUNNY   68  39  33 NW15      29.91F
QUANTICO       PTSUNNY   68  39  34 NW15G22   29.93F
COLLEGE PARK*  SUNNY     68  36  30 NW9       29.89S
LEESBURG*      MOSUNNY   66  41  39 N12G20    29.93F
MANASSAS*      MOSUNNY   66  41  39 NW12      29.93S
GAITHERSBURG*  MOSUNNY   64  39  39 NW14G21   29.94S

$$

MDZ006>007-011-014-242000-
BALTIMORE METRO

CITY           SKY/WX    TMP DP  RH WIND       PRES   REMARKS
BWI AIRPORT    NOT AVBL
MD SCIENCE CTR   N/A     66  39  37 MISG      29.89F
MARTIN STATE   MOSUNNY   70  45  40 W17       29.87F
ANNAPOLIS      MOSUNNY   66  43  43 NW12G17   29.87F
FORT MEADE*    MOSUNNY   66  37  34 NW7G17    29.91S

$$

MDZ012-015-019>023-242000-
MARYLAND EASTERN SHORE

CITY           SKY/WX    TMP DP  RH WIND       PRES   REMARKS
OCEAN CITY     SUNNY     67  47  48 NW13      29.85R
SALISBURY      SUNNY     69  46  43 W12G20    29.86S
BAY BRIDGE AP*   N/A     66  43  42 W7        29.87F
CAMBRIDGE*     MOSUNNY   66  43  42 NW10G20   29.87F
EASTON*        SUNNY     68  46  45 NW12G23   29.90F

$$

MDZ017>025-242000-
SOUTHERN MARYLAND

CITY           SKY/WX    TMP DP  RH WIND       PRES   REMARKS
PATUXENT RIVER PTSUNNY   66  44  45 NW13      29.88F
ST INIGOES     MOSUNNY   66  42  41 W17G23    29.89F
LEONARDTOWN*   MOSUNNY   63  41  45 W9        29.91S

$$

MDZ003>005-242000-
NORTH CENTRAL MARYLAND

CITY           SKY/WX    TMP DP  RH WIND       PRES   REMARKS
FREDERICK*     NOT AVBL
HAGERSTOWN APT MOSUNNY   66  33  29 NW13      29.92F
WESTMINSTER*   MOSUNNY   64  32  29 NW10G18   29.89F

$$

MDZ501>502-242000-
WESTERN MARYLAND

CITY           SKY/WX    TMP DP  RH WIND       PRES   REMARKS
OAKLAND*       CLOUDY    50  28  43 W10       30.01F
CUMBERLAND*    CLOUDY    61  32  33 NW10G18   30.02S

$$

VAZ025>031-242000-
SHENANDOAH VALLEY

CITY           SKY/WX    TMP DP  RH WIND       PRES   REMARKS
WINCHESTER*    MOSUNNY   66  30  26 NW14      29.95S
FRONT ROYAL*   FAIR      66  36  32 CALM      29.93F
LURAY*         FAIR      66  41  39 S3        29.95F
NEW MARKET*    FAIR      64  37  37 N5        29.96F
STAUNTON*      PTSUNNY   66  40  38 CALM      29.98F
WAYNESBORO*    FAIR      65  41  41 S7        29.97F

$$

WVZ021-048>050-054>055-242000-
EASTERN WEST VIRGINIA PANHANDLE

CITY           SKY/WX    TMP DP  RH WIND       PRES   REMARKS
MARTINSBURG    MOSUNNY   68  36  30 W12       29.94F
PETERSBURG*    PTSUNNY   65  30  26 CALM      29.97F

$$

VAZ036>039-050-242000-
CENTRAL FOOTHILLS

CITY           SKY/WX    TMP DP  RH WIND       PRES   REMARKS
CHARLOTTESVILL MOSUNNY   68  38  33 CALM      29.95F
CULPEPER*      PTSUNNY   68  37  32 NW5       29.94F
ORANGE*        PTSUNNY   68  41  37 CALM      29.95F
GORDONSVILLE*  FAIR      68  38  33 W7        29.94F
WARRENTON*     FAIR      69  47  45 NW10      29.92F

$$

VAZ055>057-242000-
NORTH AND CENTRAL PIEDMONT

CITY           SKY/WX    TMP DP  RH WIND       PRES   REMARKS
FREDERICKSBRG* PTSUNNY   66  44  45 W8        29.93S
STAFFORD*      PTSUNNY   66  38  34 NW14      29.97S

$$

NCZ024-NYZ072-PAZ021-071-VAZ022-071-242000-
OTHER REGIONAL OBSERVATIONS

CITY           SKY/WX    TMP DP  RH WIND       PRES   REMARKS
NEW YORK CITY  CLOUDY    61  43  51 CALM      29.79F
PHILADELPHIA   MOSUNNY   68  44  42 NW15G24   29.81F
PITTSBURGH     PTSUNNY   58  38  47 W9        30.03F
ROANOKE        PTSUNNY   68  40  35 W6        30.00F
RICHMOND       PTSUNNY   70  41  34 NW10      29.93F
RALEIGH        PTSUNNY   68  44  42 SW6       29.98F

$$

ANZ530>537-242000-
MARINE OBSERVATIONS

STATION/POSITION TIME  TEMP    WIND        PRES
                       AIR SEA DIR/SP/G
                 (UTC) (F)     (DEG/KT/KT) (MB)
THOMAS PT LIGHT  1900   63 62  300/ 12/ 13 1012.6F
BALT KEY BRIDGE  1900   65     300/ 16/ 18 1011.0F
COVE POINT       1900   64     350/ 13/ 15 1011.6F
LEWISETTA        1900   64 60  320/ 10/ 12 1012.1F
SOLOMONS ISLAND  1900      64                N/A
PINEY POINT      1900          310/ 19/ 21   N/A

$$




USA.gov is the U.S. government's official web portal to all federal, state and local government web resources and services.